www.pogodaiklimat.ru

Погода и климат >> Архив погоды >> Великобритания >> Альбермарль


ПОГОДА в Альбермарле

  • Прогноз погоды в Альбермарле
  • Монитор погоды в Альбермарле

АРХИВ ПОГОДЫ в Альбермарле

Время (UTC), дата Ветер
(напр.,м/с)
 
Видим.   Явления Облачность Т
(С)
Тd
(С)
f
(%)
Тe
(С)
Тes
(С)
Комфортность P
(гПа)
Po
(гПа)
Тmin
(С)
Tmax
(С)
R
(мм)
R24
(мм)
S
(см)
01 12.08 СЗ 1 3600 м слаб. морось н/о +10.0 +9.8 99 +10 +10 1009.5 992.4
02 12.08 СЗ 2 4100 м слаб. дождь н/о +9.5 +9.2 98 +8 +8 1009.7 992.5
03 12.08 С 2 13 км дождь н/о +8.9 +8.6 98 +7 +7 1010.1 992.9
04 12.08 СЗ 1 6000 м слаб. дождь н/о +8.8 +8.5 98 +8 +8 1010.4 993.2
05 12.08 З 2 11 км в посл. час дождь н/о +9.0 +8.9 99 +7 +7 1010.8 993.6
06 12.08 З 2 17 км в посл. час дождь н/о +9.1 +9.0 99 +7 +7 1011.1 993.9 +8.8 24
07 12.08 З 3 17 км н/о +9.7 +9.4 98 +7 +7 1011.6 994.4
08 12.08 З 3 28 км н/о +10.3 +9.5 95 +8 +8 1012.0 994.8
09 12.08 З 3 29 км н/о +11.3 +9.8 90 +9 +9 1012.2 995.1
10 12.08 З 2 30 км н/о +11.6 +9.6 88 +10 +10 1012.5 995.4
11 12.08 З 3 35 км в посл. час дождь н/о +13.1 +10.3 83 +12 +12 1012.3 995.3
12 12.08 З 3 45 км н/о +15.3 +8.5 64 +15 +15 1012.1 995.2 0.0
13 12.08 З 4 40 км н/о +15.4 +8.1 62 +15 +15 1012.2 995.3
14 12.08 З 4 45 км н/о +16.0 +8.4 61 +15 +15 1012.2 995.3
15 12.08 СЗ 3 35 км слаб. ливневой дождь н/о +14.1 +7.6 65 +13 +13 1012.5 995.5
16 12.08 СЗ 3 13 км ливневой дождь н/о +12.7 +6.6 66 +12 +12 1012.5 995.5
17 12.08 С 2 30 км дождь н/о +12.8 +10.7 87 +12 +12 1012.7 995.7
18 12.08 З 3 40 км в посл. час дождь н/о +12.7 +9.9 83 +11 +11 1012.9 995.9 +16.5 2
19 12.08 З 3 45 км н/о +11.9 +8.4 79 +11 +11 1013.1 996.1
20 12.08 З 3 50 км н/о +10.5 +8.5 87 +9 +9 1013.5 996.4
21 12.08 З 3 45 км н/о +9.8 +8.6 92 +8 +8 1013.8 996.6
22 12.08 З 2 40 км н/о +9.4 +8.4 93 +8 +8 1013.8 996.6
23 12.08 З 2 50 км н/о +9.1 +7.8 92 +8 +8 1013.9 996.6
00 13.08 штиль 0 30 км н/о +8.1 +7.4 95 +7 +7 1013.8 996.5
01 13.08 З 1 40 км н/о +8.7 +8.4 98 +8 +8 1013.6 996.3
02 13.08 З 1 40 км н/о +8.9 +8.6 98 +8 +8 1013.6 996.3
03 13.08 З 2 30 км в посл. час дождь н/о +9.4 +9.1 98 +8 +8 1013.4 996.2
04 13.08 З 2 21 км н/о +9.5 +8.8 95 +8 +8 1013.4 996.1
05 13.08 З 3 10 км н/о +9.0 +8.6 97 +7 +7 1013.6 996.4
06 13.08 З 3 18 км н/о +9.0 +8.6 97 +7 +7 1013.6 996.3 +8.1 0.2
07 13.08 З 3 23 км н/о +10.4 +9.2 92 +8 +8 1013.9 996.7
08 13.08 З 4 35 км н/о +12.0 +9.9 87 +10 +10 1014.0 996.9
09 13.08 З 5 24 км н/о +13.1 +9.2 77 +11 +11 1013.9 996.9
10 13.08 З 4 30 км н/о +14.0 +8.9 71 +13 +13 1013.8 996.8
11 13.08 З 5 30 км н/о +15.3 +8.5 64 +14 +14 1013.7 996.8
12 13.08 З 5 18 км н/о +15.8 +7.6 58 +15 +15 1013.7 996.8
13 13.08 З 5 45 км н/о +17.6 +7.9 53 +17 +17 1013.2 996.5
14 13.08 З 3 45 км н/о +15.9 +8.8 63 +16 +16 1013.4 996.5
15 13.08 З 5 30 км в посл. час дождь н/о +15.8 +7.5 58 +15 +15 1013.6 996.7
16 13.08 З 6 30 км н/о +15.5 +7.8 60 +14 +14 1013.6 996.8
17 13.08 З 3 40 км в посл. час дождь н/о +12.9 +10.5 85 +11 +11 1014.0 996.9
18 13.08 З 3 30 км н/о +13.9 +9.4 74 +13 +13 1013.9 997.0 +17.7 0.2
19 13.08 З 3 45 км н/о +13.0 +8.8 76 +12 +12 1014.1 997.0
20 13.08 З 2 45 км н/о +10.8 +8.8 87 +10 +10 1014.3 997.2
21 13.08 З 1 35 км н/о +9.8 +8.4 91 +9 +9 1014.2 997.0
22 13.08 З 1 21 км н/о +8.6 +7.7 94 +8 +8 1014.3 997.0
23 13.08 З 1 29 км н/о +8.2 +7.7 97 +7 +7 1014.3 997.0
00 14.08 З 1 2800 м в посл. час дождь со снегом н/о +7.9 +7.4 97 +8 +8 1014.2 996.9 0.2
01 14.08 З 1 22 км н/о +7.9 +7.7 99 +8 +8 1014.1 996.7
02 14.08 штиль 0 29 км н/о +7.9 +7.6 98 +7 +7 1013.5 996.2
03 14.08 З 1 28 км н/о +8.2 +8.0 99 +8 +8 1012.9 995.6
04 14.08 Ю 1 30 км н/о +8.5 +8.3 99 +8 +8 1012.3 995.0
05 14.08 В 1 29 км слаб. ливневой дождь н/о +9.2 +8.5 95 +9 +9 1011.9 994.7
06 14.08 ЮВ 2 27 км слаб. дождь н/о +9.8 +8.9 94 +9 +9 1011.4 994.3 +7.5 0.0
07 14.08 ЮВ 2 28 км слаб. дождь н/о +10.9 +9.9 94 +9 +9 1010.9 993.8
08 14.08 Ю 3 15 км слаб. дождь н/о +11.5 +10.3 92 +10 +10 1010.6 993.5
09 14.08 Ю 2 30 км слаб. дождь н/о +12.1 +10.7 91 +11 +11 1010.0 993.0
10 14.08 ЮВ 3 22 км в посл. час дождь н/о +12.5 +11.1 91 +11 +11 1009.3 992.3
11 14.08 ЮВ 3 25 км в посл. час дождь н/о +12.8 +11.3 91 +12 +12 1008.8 991.9
12 14.08 Ю 2 40 км в посл. час дождь н/о +14.4 +11.9 85 +14 +14 1007.9 991.1 0.6
13 14.08 ЮВ 3 11 км н/о +13.7 +11.9 89 +13 +13 1007.4 990.5
14 14.08 ЮВ 3 7000 м слаб. дождь н/о +13.8 +13.0 95 +13 +13 1006.5 989.6
15 14.08 ЮВ 2 6000 м дождь н/о +14.1 +13.6 97 +13 +13 1005.7 988.9
16 14.08 ЮВ 2 8000 м в посл. час дождь н/о +14.7 +13.9 95 +14 +14 1004.8 988.0
17 14.08 ЮВ 2 15 км слаб. ливневой дождь н/о +14.6 +13.7 94 +14 +14 1004.1 987.3
18 14.08 ЮВ 2 16 км в посл. час дождь н/о +14.5 +13.9 96 +14 +14 1003.4 986.7 +14.8 3
19 14.08 ЮВ 2 5000 м дымка н/о +14.4 +13.9 97 +14 +14 1003.0 986.2
20 14.08 Ю 2 7000 м дымка н/о +14.3 +13.8 97 +14 +14 1002.7 986.0
21 14.08 ЮВ 2 4500 м дымка н/о +14.1 +13.7 97 +13 +13 1002.3 985.5
22 14.08 Ю 2 2800 м дымка н/о +14.1 +13.7 97 +13 +13 1001.9 985.1
23 14.08 Ю 2 3100 м дымка н/о +14.0 +13.7 98 +14 +14 1001.4 984.6
00 15.08 Ю 1 2800 м в посл. час дождь н/о +14.0 +13.8 99 +15 +15 1001.2 984.4 0.2
01 15.08 З 4 24 км н/о +13.7 +12.5 92 +12 +12 1001.0 984.2
02 15.08 З 3 20 км н/о +13.5 +12.6 94 +12 +12 1000.9 984.1
03 15.08 З 2 14 км н/о +13.4 +12.8 96 +13 +13 1000.8 984.0
04 15.08 З 4 30 км в посл. час туман н/о +13.9 +13.0 94 +12 +12 1000.6 983.8
05 15.08 З 4 35 км в посл. час дождь н/о +14.1 +13.2 94 +13 +13 1000.8 984.0
06 15.08 З 5 35 км н/о +14.1 +13.0 93 +12 +12 1001.2 984.5 +12.8 0.2
07 15.08 З 5 13 км ливневой дождь н/о +13.9 +13.2 96 +12 +12 1001.8 985.0
08 15.08 З 5 45 км в посл. час дождь н/о +15.3 +13.3 88 +14 +14 1002.5 985.9
09 15.08 З 6 30 км н/о +15.8 +12.1 79 +14 +14 1003.2 986.5
10 15.08 З 5 50 км н/о +14.6 +11.1 80 +13 +13 1004.5 987.7
11 15.08 З 8-14
{14}
45 км н/о +16.0 +10.1 68 +14 +14 1005.1 988.4
12 15.08 З 8
{14}
16 км н/о +17.2 +10.3 64 +16 +16 1006.2 989.5 0.2
13 15.08 З 7
{13}
40 км н/о +16.4 +9.8 65 +15 +15 1007.5 990.7
14 15.08 З 5 45 км н/о +16.6 +9.5 63 +16 +16 1008.4 991.7
15 15.08 З 6 27 км н/о +18.3 +8.9 54 +18 +18 1008.8 992.2
16 15.08 З 7 30 км н/о +17.2 +7.6 53 +16 +16 1009.4 992.7
17 15.08 З 5 50 км н/о +16.9 +7.0 52 +16 +16 1010.2 993.5
18 15.08 З 4 40 км н/о +16.3 +8.1 58 +16 +16 1011.1 994.3 +18.6 0.2
19 15.08 З 3 40 км н/о +14.8 +8.0 64 +14 +14 1011.9 995.0
20 15.08 З 3 40 км н/о +12.2 +7.9 75 +11 +11 1012.2 995.2
21 15.08 ЮЗ 1 35 км н/о +10.7 +8.4 86 +10 +10 1012.6 995.5
22 15.08 ЮЗ 1 28 км н/о +9.7 +8.2 90 +10 +10 1012.3 995.1
23 15.08 З 1 30 км н/о +9.7 +8.3 91 +9 +9 1012.3 995.1
00 16.08 З 1 16 км н/о +9.5 +8.3 92 +10 +10 1011.6 994.4 6
01 16.08 ЮВ 2 45 км н/о +11.3 +9.5 89 +10 +10 1010.9 993.8
02 16.08 Ю 2 45 км н/о +12.6 +10.6 88 +12 +12 1010.1 993.1
03 16.08 Ю 2 29 км н/о +13.3 +11.5 89 +13 +13 1009.5 992.6
04 16.08 Ю 3 35 км н/о +13.2 +11.3 88 +12 +12 1008.8 991.9
05 16.08 ЮВ 3 30 км н/о +12.9 +11.3 90 +11 +11 1007.9 990.9
06 16.08 ЮВ 2 22 км слаб. ливневой дождь н/о +12.6 +11.3 92 +12 +12 1007.2 990.3 +9.4 0.0
07 16.08 Ю 3 12 км слаб. дождь н/о +12.5 +11.9 96 +11 +11 1006.5 989.6
08 16.08 Ю 4 10 км дождь н/о +12.6 +11.8 95 +11 +11 1005.6 988.7
09 16.08 ЮВ 3 10 км дождь н/о +12.7 +12.2 97 +11 +11 1004.4 987.5
10 16.08 ЮВ 3 6000 м ливневой дождь н/о +13.3 +12.8 97 +12 +12 1003.6 986.8
11 16.08 ЮВ 3 5000 м дождь н/о +13.8 +13.4 97 +13 +13 1002.6 985.8
12 16.08 Ю 3 35 км слаб. ливневой дождь н/о +14.5 +13.5 94 +14 +14 1001.4 984.7 8
13 16.08 Ю 4 50 км в посл. час дождь н/о +15.9 +14.0 88 +15 +15 1000.3 983.6
14 16.08 ЮЗ 2 40 км н/о +16.9 +14.4 85 +17 +17 999.4 982.9
15 16.08 Ю 3 45 км н/о +16.4 +14.1 86 +16 +16 998.7 982.1
16 16.08 Ю 3 45 км н/о +16.3 +14.0 86 +16 +16 997.9 981.3
17 16.08 Ю 2 50 км н/о +16.4 +14.5 89 +16 +16 997.1 980.6
18 16.08 Ю 3 14 км сильн. ливневой дождь н/о +15.5 +14.7 95 +15 +15 996.5 980.0 +17.2 10
19 16.08 ЮВ 1 45 км дождь н/о +15.3 +14.9 97 +16 +16 995.8 979.2
20 16.08 Ю 3 9000 м ливневой дождь н/о +15.7 +15.4 98 +15 +15 994.9 978.4
21 16.08 Ю 3 45 км в посл. час дождь н/о +15.5 +14.9 96 +15 +15 994.3 977.8
22 16.08 З 3 30 км н/о +15.3 +14.4 94 +15 +15 994.0 977.5
23 16.08 З 1 13 км н/о +14.6 +13.8 95 +16 +16 994.3 977.7
00 17.08 З 2 16 км н/о +14.4 +13.1 92 +14 +14 994.2 977.5 6
01 17.08 З 2 14 км в посл. час туман н/о +14.0 +12.4 90 +13 +13 994.2 977.6
02 17.08 З 3 20 км н/о +14.3 +12.2 87 +13 +13 994.5 977.9
03 17.08 З 1 12 км в посл. час дождь н/о +12.9 +12.2 96 +13 +13 994.7 978.0
04 17.08 ЮВ 1 14 км в посл. час туман н/о +11.8 +11.3 97 +12 +12 994.6 977.9
05 17.08 З 1 12 км н/о +12.0 +11.6 97 +13 +13 994.3 977.6
06 17.08 З 3 7000 м сильн. ливневой дождь н/о +12.7 +12.3 97 +11 +11 995.0 978.3 +11.7 9
07 17.08 З 2 11 км в посл. час дождь н/о +13.2 +12.5 96 +12 +12 995.7 979.0
08 17.08 З 3 11 км ливневой дождь н/о +13.5 +11.6 88 +12 +12 996.4 979.7
09 17.08 З 4 18 км в посл. час дождь н/о +14.7 +10.4 75 +13 +13 996.7 980.0
10 17.08 З 4 29 км в посл. час дождь н/о +14.5 +9.9 74 +13 +13 996.9 980.2
11 17.08 З 5 21 км н/о +16.9 +9.9 63 +16 +16 996.9 980.4
12 17.08 З 4 23 км н/о +17.3 +10.5 64 +17 +17 996.9 980.4 0.2
13 17.08 З 5 30 км в посл. час дождь н/о +17.0 +11.8 71 +16 +16 997.2 980.7
14 17.08 З 4 19 км н/о +18.2 +10.3 60 +18 +18 997.4 981.0
15 17.08 З 4 16 км н/о +17.1 +8.9 58 +17 +17 997.6 981.1
16 17.08 З 5 18 км н/о +17.6 +7.9 53 +17 +17 997.6 981.1
17 17.08 З 3 29 км н/о +16.2 +9.1 63 +16 +16 997.7 981.1
18 17.08 ЮЗ 2 22 км н/о +16.4 +9.6 64 +17 +17 997.7 981.1 +18.6 0.2
19 17.08 Ю 2 23 км н/о +15.1 +9.9 71 +15 +15 998.1 981.5
20 17.08 Ю 2 25 км н/о +13.4 +10.0 80 +13 +13 998.0 981.3
21 17.08 Ю 2 19 км н/о +12.7 +10.1 84 +12 +12 998.2 981.4
22 17.08 Ю 2 17 км в посл. час дождь н/о +13.1 +10.8 86 +13 +13 997.8 981.0
23 17.08 З 2 18 км н/о +12.5 +10.4 87 +12 +12 997.7 980.9
00 18.08 Ю 2 16 км н/о +12.7 +10.2 85 +12 +12 997.5 980.8 0.0
01 18.08 Ю 1 20 км н/о +11.5 +10.3 92 +11 +11 997.2 980.4
02 18.08 З 2 16 км н/о +12.5 +10.5 88 +12 +12 996.6 979.9
03 18.08 ЮЗ 2 26 км н/о +11.7 +9.5 86 +11 +11 996.3 979.5
04 18.08 В 1 21 км н/о +10.4 +9.1 92 +11 +11 996.2 979.3
05 18.08 В 1 13 км н/о +9.8 +9.2 96 +10 +10 996.1 979.2
06 18.08 ЮВ 2 10 км дым н/о +11.1 +9.4 89 +10 +10 996.0 979.2 +9.6 0.0
07 18.08 ЮВ 2 25 км н/о +13.3 +9.7 79 +13 +13 995.8 979.1
08 18.08 З 3 18 км н/о +14.2 +9.2 72 +13 +13 995.2 978.6
09 18.08 ЮЗ 3 30 км н/о +16.0 +10.1 68 +16 +16 995.0 978.5
10 18.08 З 3 20 км н/о +17.2 +10.4 64 +17 +17 995.0 978.6
11 18.08 З 4 17 км н/о +17.4 +11.6 69 +17 +17 995.4 979.0
12 18.08 З 5 35 км н/о +15.7 +9.8 68 +15 +15 995.8 979.3
13 18.08 З 4 50 км в посл. час дождь н/о +16.5 +10.8 69 +16 +16 996.1 979.6
14 18.08 З 4 27 км н/о +16.1 +11.5 74 +15 +15 996.5 980.0
15 18.08 З 4 28 км н/о +15.5 +10.8 74 +15 +15 996.8 980.2
16 18.08 З 4 30 км н/о +16.6 +10.6 68 +16 +16 997.2 980.7
17 18.08 З 3 18 км в посл. час дождь н/о +15.4 +11.8 79 +15 +15 997.7 981.0
18 18.08 З 3 25 км н/о +15.8 +10.9 73 +15 +15 998.2 981.6 +17.9 0.2
19 18.08 З 4 40 км н/о +13.7 +9.1 74 +12 +12 999.0 982.2
20 18.08 З 2 30 км в посл. час дождь н/о +11.8 +9.5 86 +11 +11 999.7 982.9
21 18.08 З 1 26 км н/о +9.9 +8.6 92 +10 +10 1000.3 983.3
22 18.08 З 2 27 км н/о +11.1 +9.7 91 +10 +10 1000.5 983.6
23 18.08 З 3 30 км н/о +12.0 +10.3 89 +11 +11 1000.7 983.8
00 19.08 З 2 27 км н/о +12.4 +10.8 90 +11 +11 1001.4 984.5 0.0
01 19.08 З 2 35 км в посл. час дождь н/о +11.8 +10.5 92 +11 +11 1001.7 984.8

 

Местоположение метеостанции Альбермарль (Великобритания): широта 55.02 долгота -1.87 высота над уровнем моря 146 м.

В архиве по умолчанию представлена погода в Альбермарле за последнюю неделю. Архивные данные за месяц целиком и за предыдущие месяцы, начиная с января 2011 года, Вы можете получить, выбрав интересующий диапазон дат из раскрывающегося списка и нажав кнопку "Ввод!".


*Определитесь, кто Вы:
робот инопланетянин человек

Внимание! Время в таблицах - всемирное. Для получения местного времени необходимо прибавить поправку, которая равна 0 ч.

Смотрите также архив погоды в соседних городах и на ближайших метеорологических станциях:

Погода в Лагере Redesdale (Великобритания) (39 км)
Погода в Спадедэме (Великобритания) (43 км)
Погода в Боулмере (Великобритания) (48 км)
Погода в Грэйт Дан Фелле (Великобритания) (53 км)
Погода в Варкопе (Великобритания) (61 км)
Погода в Карлайле (Великобритания) (71 км)
Погода в Шапе (Великобритания) (78 км)
Погода в Лофтусе (Великобритания) (81 км)
Погода в Чартерхолле (Великобритания) (82 км)
Погода в Лееминге (Великобритания) (83 км)

Пояснения к столбцам:

Ветер - указаны скорость ветра в м/с - средняя за 10 мин, порывы в срок и между сроками (в фигурных скобках) и направление, откуда дует ветер: С - северный, СВ - северо-восточный, В - восточный, ЮВ - юго-восточный, Ю - южный, ЮЗ - юго-западный, З - западный, СЗ - северо-западный.
Видимость - горизонтальная дальность видимости в метрах или километрах. При видимости от 1 до 10 км при отсутствии осадков обычно наблюдается дымка, при ухудшении видимости до 1 км и менее - туман. В сухую погоду видимость может ухудшаться дымом, пылью или мглою.
Явления - указаны атмосферные явления, наблюдавшиеся в срок или в последний час перед сроком; фигурными скобками обозначены явления, наблюдавшиеся между сроками (за 1-3 часа до срока); квадратными скобками обозначены град или гололедные отложения с указанием их диаметра в мм.
Облачность - указаны через наклонную черту общая и нижняя облачность в баллах и высота нижней границы облаков в метрах; квадратными скобками обозначены формы облаков: Ci - перистые, Cs - перисто-слоистые, Cc - перисто-кучевые, Ac - высококучевые, As - высокослоистые, Sc - слоисто-кучевые, Ns - слоисто-дождевые, Cu - кучевые, Cb - кучево-дождевые. Подробнее классификацию облаков см. в Атласе облаков (PDF).
T - Температура воздуха - температура, измеренная на высоте 2 м над землей.
Td - Температура точки росы - температура, при понижении до которой содержащийся в воздухе водяной пар достигнет насыщения.
f - Относительная влажность воздуха - влажноcть воздуха, измеренная на высоте 2 м над землей.
Te - Эффективная температура - температура, которую ощущает одетый по сезону человек в тени. Характеристика душности погоды. При расчете учитывается влияние влажности воздуха и скорости ветра на теплоощущения человека.
Tes - Эффективная температура на солнце - температура, которую ощущает человек, с поправкой на солнечный нагрев. Характеристика знойности погоды. Зависит от высоты солнца над горизонтом, облачности и скорости ветра. Ночью, в пасмурную погоду, а также при ветре 12 м/с и более поправка равна нулю.
P - Атмосферное давление - приведенное к уровню моря атмосферное давление.
Po - Атмосферное давление - измеренное на уровне метеостанции атмосферное давление.
Tmin - Минимальная температура - минимум температуры воздуха на высоте 2 м над землей.
Tmax - Максимальная температура - максимум температуры воздуха на высоте 2 м над землей.
R - Количество осадков - Количество выпавших осадков за период времени, мм. При наведении курсора мыши на число - период времени, за который выпало указанное количество осадков.
R24 - Количество осадков - Количество выпавших осадков за 24 часа, мм.
S - Снежный покров - Высота снежного покрова, см. При наведении курсора мыши на число - состояние снежного покрова и степень покрытия местности в баллах.